Yaogan 35 01 zu 02 xing

operational
NORAD ID: 49393 Int'l Des: 2021-101 Owner: ZZB Country: CN Constellation: yaogan
LEOCIRCULAR

Yaogan 35 01 zu 02 xingについて

説明を読み込み中...

リアルタイム位置

3D地球を読み込み中...

次回通過

高度履歴

Altitude vs Time

uPlot chart will show altitude changes over time

軌道要素

1 49393U 21101D 26061.10832032 .00016793 00000-0 69576-3 0 9999
2 49393 35.0025 218.3459 0009000 179.5276 180.5449 15.23026161240670
Epoch: Mar 2, 2026 • Age: 24 hours

現在のステータス

高度 504.2 km
速度 7.61 km/s
衛星直下点 -34.90°S, 48.95°W
打ち上げ日 Nov 6, 2021
運用期間 4.3 years
タイプ military

技術仕様

分類 Payload
質量 300.00 kg
乾燥質量 300.00 kg
総質量 300.00 kg
長さ 2.50 m
直径 2.50 m
スパン 5.00 m
形状 Box + 2 Pan
製造者 DFHZ
フェーズステータス In Orbit
所有者/国 ZZB/CN

大規模コンステレーション

Loading constellations...